Location: Asheville, NC
(35.6000°N, 82.5500°W)
Time: 15:18:05
(UTC-04:00)

CUTE-I - Pass Details

Date: 18 March 2018
Orbit: 811 x 825 km, 98.7° (Epoch: 24 June)

Event Time Altitude Azimuth Distance (km) Brightness Sun altitude
Rises 06:22:29 0° 40° (NE) 3,362 ? -15.8°
Reaches altitude 10° 06:27:11 10° 78° (ENE) 2,420 ? -14.9°
Maximum altitude 06:28:21 11° 90° (E) 2,371 ? -14.7°
Drops below altitude 10° 06:29:30 10° 103° (ESE) 2,415 ? -14.4°
Sets 06:34:09 0° 141° (SE) 3,337 ? -13.5°
